STARLINK-1436 (45713 NORAD) Tracking and Keplerian Element Data

This shows tracking and keplerian element data for the satellite.

Feedback or suggestion? Click here.




ElementValue
Catalog45713
NameSTARLINK-1436
Epoch Orbit1026
Epoch Day215.91667824
Epoch Year2020
RAAN237.2359
Inclination52.9978
Eccentricity0.0001316
Argument of Perigee56.4107
Mean Anonmoly325.5529
Mean Motion15.34280645
Decay Rate-0.01075758
L11 45713U 20035BJ 20215.91667824 -.01075758 00000-0 -34843-1 0 9991
L22 45713 52.9978 237.2359 0001316 56.4107 325.5529 15.34280645 10265

Live tracking and technical data element details for STARLINK-1436 (NORAD 45713). STARLINK-1436 can be tracked NOW for your location showing map with azimuth and elevation plus other details from your city location.

Track the satellite on the map from your city or location and see movement details for azimuth, elevation, latitude, longitude, range, height, and movement on the map or in text.







IsCatalogInMostPopularTable: catalog: 45713, numindb: 14
Update: records affected: 1



GetName: 45713 STARLINK-1436

Hit Count: updated at: Mon, 03 Aug 2020 18:43:45 GMT